{"data":{"norad_id":69950,"intl_designator":"2026-157H","name":"STARLINK-37895","alt_names":[],"object_type":"PAYLOAD","status":"ACTIVE","operator":null,"country":"US","launch_date":"2026-07-09","launch_site_code":"AFETR","launch_vehicle":null,"mission":null,"orbit_class":"UNKNOWN","rcs_meters":null,"size_class":null,"mass_kg":null,"dimensions":null,"purposes":["comms"],"wikipedia_slug":null,"has_3d_model":false,"image_url":null,"decayed_at":null,"tle_current":{"epoch":"2026-09-20T04:27:43.621056Z","epoch_age_seconds":44939,"freshness":"FRESH","line1":"1 69950U 26157H   26263.18592154  .00015038  00000+0  44116-3 0  9999","line2":"2 69950  53.1593 335.2716 0001123  95.3856 264.7275 15.35397763 11326","mean_motion":15.35397763,"eccentricity":0.0001123,"inclination_deg":53.1593,"raan_deg":335.2716,"arg_perigee_deg":95.3856,"mean_anomaly_deg":264.7275,"bstar":0.00044116,"rev_number":1132,"period_min":93.786772047029,"perigee_km":458.97139086215,"apogee_km":460.50717787562,"semimajor_km":6837.8762843689,"source":"CELESTRAK","updated_at":"2026-09-20T09:00:44.300151Z"}}}